Location: Unspecified
(37.6100°N, 2.7800°W)
Time: 01:18:46
(UTC+00:00)

Tiangong 1 - Visible Passes

Search period start: 17 January 2018 00:00
Search period end: 27 January 2018 00:00
Orbit: 264 x 288 km, 42.8° (Epoch: 16 January)

Date Brightness Start Highest point End Pass type
(mag) Time Alt. Az. Time Alt. Az. Time Alt. Az.
17 Jan 2.0 18:29:57 10° WNW 18:32:03 24° N 18:32:21 23° N visible
18 Jan 2.0 18:30:00 10° WNW 18:32:03 22° N 18:32:17 22° N visible
19 Jan 1.9 18:29:49 10° NW 18:31:55 24° N 18:32:06 23° NNE visible
20 Jan 1.6 18:29:24 10° NW 18:31:37 28° N 18:31:50 27° NNE visible
21 Jan 1.1 18:28:47 10° NW 18:31:08 37° NNE 18:31:31 34° NE visible
22 Jan 0.4 18:28:01 10° WNW 18:30:27 60° NNE 18:31:11 37° E visible
23 Jan 0.5 18:27:09 10° WNW 18:29:36 75° SSW 18:30:52 24° ESE visible
24 Jan 1.8 18:26:13 10° W 18:28:32 37° SSW 18:30:38 12° SE visible
25 Jan 3.1 18:25:23 10° W 18:27:17 20° SSW 18:29:10 10° SSE visible
26 Jan 3.8 18:25:06 10° SW 18:25:49 11° SW 18:26:32 10° SSW visible
